Location: ?????
(37.8435°N, 22.8592°E)
Time: 12:20:49
(UTC+00:00)

Daily predictions for brighter satellites

Satellite Brightness Start Highest point End
(mag) Time Altitude Azimuth Time Altitude Azimuth Time Altitude Azimuth
DELTA 2 DEB (DPAF) 4.2 18:04:47 10° NNE 18:08:55 51° E 18:13:00 10° S
Cosmos 1656 Rocket 4.0 18:06:27 10° NNW 18:11:55 68° WSW 18:17:25 10° S
Centaur D AC-29 3.2 18:08:28 10° SSW 18:12:06 23° SSE 18:20:20 10° E
Cosmos 2292 Rocket 4.1 18:06:08 10° S 18:12:14 74° E 18:16:53 10° N
Cosmos 2221 2.7 18:08:44 10° S 18:13:02 78° W 18:17:22 10° N
SeaSat 1 2.9 18:09:26 10° SE 18:14:06 46° ENE 18:18:47 10° NNW
BREEZE-M DEB (TANK) 3.8 18:12:00 10° W 18:14:15 44° NNW 18:19:24 10° NE
CSL-04 Rocket 3.8 18:10:32 10° SSE 18:15:42 60° ENE 18:20:54 10° N
USA 229 DEB 4.1 18:11:12 10° NNW 18:18:52 89° WSW 18:27:03 10° SSE
USA 32 4.2 18:13:51 10° SSE 18:18:56 57° E 18:24:04 10° NNE
USA 229 4.1 18:11:18 10° NNW 18:18:59 89° WSW 18:27:11 10° SSE
Okean-O 3.7 18:16:57 10° SE 18:20:42 28° ENE 18:24:29 10° N
Cosmos 2297 4.4 18:16:07 10° NNW 18:21:42 55° WSW 18:27:13 10° S
CSL-04 Debris 4.2 18:18:01 10° SSE 18:23:28 78° ENE 18:28:55 10° N
CZ-4C R/B 4.2 18:22:30 10° NE 18:26:04 30° E 18:29:40 10° SSE
Cosmos 1340 Rocket 4.4 18:24:52 10° SE 18:27:32 17° E 18:30:11 10° NE
Cosmos 1048 Rocket 4.4 18:22:50 10° SSW 18:27:55 67° WNW 18:33:02 10° NNE
PSLV R/B 3.7 18:24:49 10° SSE 18:28:28 63° ENE 18:32:05 10° N
Cosmos 1634 Rocket 4.1 18:22:38 10° N 18:28:50 62° E 18:34:56 10° SSE
DELTA 2 R/B (1) 3.7 18:25:15 10° SW 18:30:44 58° SSE 18:36:14 10° ENE
CZ-4 R/B 2.9 18:28:36 10° SSW 18:32:06 34° W 18:35:39 10° NNW
Cosmos 1842 Rocket 3.5 18:28:08 10° S 18:32:31 68° E 18:36:53 10° NNE
Aureole 3 Rocket 4.1 18:27:33 10° N 18:32:47 83° W 18:40:11 10° S
H-2A R/B 2.0 18:33:50 10° WSW 18:35:30 15° SSW 18:36:32 12° S
Hubble Space Telescope 2.2 18:33:54 10° SW 18:36:57 21° S 18:39:13 14° SE
Cosmos 1331 Rocket 4.1 18:34:23 10° N 18:39:33 60° ENE 18:44:12 12° SSE
Cosmos 1603 4.0 18:34:35 10° SSW 18:40:14 76° WNW 18:45:58 10° NNE
Lacrosse 4 Rocket 3.7 18:40:24 10° NNE 18:41:46 11° NE 18:43:08 10° ENE
MOS 1-B Rocket 4.3 18:34:26 10° SSE 18:41:53 81° ENE 18:48:14 10° N
BREEZE-M DEB (TANK) 4.3 18:42:15 12° ESE 18:42:15 12° ESE 18:43:54 10° E
Cosmos 2369 Rocket 3.0 18:36:46 10° NNW 18:42:08 49° WSW 18:47:31 10° S
Okean 1 3.6 18:44:48 10° SSE 18:48:29 45° E 18:52:12 10° NNE
SPOT 5 3.4 18:45:59 15° SE 18:49:12 37° ENE 18:53:12 10° N
USA 186 4.0 18:49:18 10° SSW 18:52:00 25° W 18:54:46 10° NW
Cosmos 1110 Rocket 4.0 18:47:10 10° NNW 18:52:30 87° ENE 18:57:13 13° SSE
Okean 3 Rocket 3.5 18:50:20 10° N 18:54:43 89° ENE 18:58:54 11° S
BREEZE-M DEB (TANK) 4.4 18:31:44 10° SW 18:56:02 73° SE 19:00:57 10° NE
USA 306 3.1 18:53:53 10° WNW 18:57:35 50° SW 19:00:07 19° SSE
Cosmos 1340 3.9 18:56:23 10° NNE 18:59:03 21° ENE 18:59:59 19° E
Cosmos 1726 1.5 18:57:14 10° N 19:00:20 89° W 19:02:26 19° S
NOSS 3-3 (C) 3.8 18:56:24 10° S 19:01:18 47° ESE 19:06:54 10° NE
FALCON 9 R/B 2.9 18:59:11 10° W 19:03:25 56° S 19:13:52 14° ESE
Resurs 01 Rocket 3.0 19:00:06 10° SSW 19:04:11 36° W 19:08:17 10° NNW
Okean O Rocket 2.6 19:00:36 10° S 19:04:49 45° W 19:09:04 10° NNW
MetOp-B 4.3 19:01:32 17° SSE 19:05:32 61° ENE 19:10:49 10° N
Meteor 2-10 4.3 19:05:57 10° N 19:11:13 53° ENE 19:14:17 23° SE
Meteor 1-19 Rocket 4.2 19:07:25 10° S 19:13:15 72° E 19:18:55 10° NNE
Cosmos 2180 Rocket 4.5 19:07:19 10° N 19:13:26 67° E 19:17:52 19° SSE
Cosmos 1743 Rocket 4.0 19:11:57 10° N 19:16:13 45° E 19:18:08 28° SE
Cosmos 1151 Rocket 3.3 19:17:10 26° SSE 19:19:16 49° E 19:23:27 10° NNE
Ariane Rocket 3.8 19:17:52 24° ESE 19:20:12 36° ENE 19:24:51 10° N
Cosmos 1408 Rocket 3.6 19:17:11 10° N 19:21:38 82° W 19:24:28 22° S
Cosmos 1536 2.9 19:18:07 10° N 19:22:02 73° W 19:24:25 23° S
USA 59 Rocket 0.9 19:18:27 10° NNW 19:22:35 45° NE 19:25:27 25° ESE
NOSS 2-1 (E) 4.4 19:21:44 10° NNW 19:25:55 49° ENE 19:28:42 26° ESE
Cosmos 220 Rocket 3.9 19:22:27 10° SSW 19:26:47 87° ESE 19:31:06 10° NNE
Cosmos 1733 3.0 19:24:30 10° N 19:27:59 62° E 19:28:48 45° SE
Terra 2.1 19:26:02 30° SE 19:28:02 50° ENE 19:32:36 10° N
ERS-1 Rocket 3.0 19:27:10 29° SSE 19:29:42 65° ENE 19:34:41 10° N
Cosmos 614 Rocket 4.0 19:25:15 10° SSW 19:30:26 84° WNW 19:35:41 10° NNE
OAO 3 Rocket 3.3 19:30:15 10° WSW 19:34:52 52° SSE 19:36:37 34° ESE
Meteor 1-11 Rocket 4.0 19:30:11 10° NNW 19:35:54 68° W 19:40:08 19° S
Meteor 2-9 Rocket 4.3 19:31:01 10° N 19:36:55 86° W 19:40:29 25° S
Meteor 2-17 Rocket 4.3 19:32:03 15° S 19:37:11 88° E 19:43:15 10° N
NOSS 2-1 (D) 4.0 19:34:54 10° NNW 19:39:10 68° ENE 19:41:30 34° SE
SPOT 3 Rocket 3.8 19:39:04 34° SE 19:41:01 52° ENE 19:46:00 10° N
Cosmos 1328 Rocket 4.2 19:42:18 34° E 19:42:28 34° E 19:46:22 10° NNE
Cosmos 1818 4.1 19:38:36 10° SW 19:43:57 61° WNW 19:49:23 10° NNE
Cosmos 1092 Rocket 4.3 19:41:33 31° SSE 19:44:14 50° E 19:50:18 10° NNE
Cosmos 2195 Rocket 4.4 19:46:23 30° SSE 19:49:28 67° E 19:55:31 10° NNE
SeaSat 1 4.4 19:48:06 10° SSW 19:51:40 21° WSW 19:55:19 10° WNW
Nadezhda 4 Rocket 4.2 19:47:36 14° SSW 19:52:57 71° W 19:59:14 10° N
ARGOS Delta rocket 4.2 19:51:56 29° S 19:54:19 60° W 19:58:58 10° NNW
Meteor 2-4 Rocket 3.7 19:52:42 31° S 19:55:40 75° E 20:01:36 10° NNE
USA 245 4.1 19:58:57 29° NW 19:58:57 29° NW 20:00:31 10° NNW
Cosmos 1269 Rocket 3.9 19:56:47 26° SSW 19:59:47 89° ESE 20:05:05 10° NNE
Sich 1 3.9 19:57:25 10° NNW 20:01:36 46° W 20:03:19 30° SW
MOS 1 Rocket 3.5 20:02:35 45° SSE 20:04:15 86° ENE 20:09:39 10° N
USA 281 3.8 20:03:24 30° ESE 20:06:04 44° ENE 20:12:14 10° N
MetOp-A 4.2 20:05:45 43° E 20:06:28 47° ENE 20:11:16 10° N
Cosmos 1805 3.1 20:06:46 10° NNW 20:10:27 71° W 20:10:29 71° W
Cosmos 1833 Rocket 2.5 20:08:29 40° S 20:10:32 74° ESE 20:16:09 10° NNE
Cosmos 1633 Rocket 3.2 20:08:38 10° N 20:12:58 56° E 20:13:01 55° E
Cosmos 1656 3.5 20:10:11 10° NNW 20:15:42 84° ENE 20:16:58 55° SSE
NOSS 2-1 (C) 4.2 20:12:27 10° NW 20:16:49 58° WSW 20:18:04 46° S
DELTA 2 R/B (1) 3.6 20:11:31 10° W 20:17:08 77° N 20:20:56 21° ENE
Cosmos 1992 Rocket 4.0 20:13:39 10° NNW 20:18:53 77° WSW 20:19:56 56° S
Cosmos 1666 Rocket 3.3 20:15:29 10° N 20:19:48 84° E 20:19:54 83° ESE
Lacrosse 4 Rocket 1.4 20:16:21 10° NNW 20:20:28 70° WSW 20:20:28 70° WSW
Cosmos 2082 Rocket 3.6 20:27:14 24° E 20:27:14 24° E 20:30:37 10° NE
Cosmos 1023 Rocket 4.4 20:26:33 66° SE 20:26:57 69° ESE 20:32:09 10° NNE
Cosmos 1626 3.2 20:29:41 36° NW 20:29:41 36° NW 20:32:02 10° N
Cosmos 2026 Rocket 4.2 20:28:10 33° SSW 20:31:05 68° W 20:37:18 10° N
Cosmos 1140 Rocket 3.3 20:32:59 72° SE 20:33:18 75° ESE 20:38:31 10° NNE
Cosmos 1607 4.1 20:29:56 16° SW 20:35:09 74° WNW 20:41:40 10° NNE
GEOS 3 Rocket 3.4 20:30:22 10° NE 20:35:31 74° ESE 20:35:52 71° SSE
Cosmos 1975 3.9 20:37:58 10° NNW 20:41:27 38° W 20:41:27 38° W
Cosmos 2360 4.1 20:36:37 10° NNW 20:42:22 81° ENE 20:43:03 69° SE
Cosmos 44 Rocket 3.4 20:41:59 10° NNW 20:46:44 61° NE 20:46:44 61° NE
Cosmos 1707 4.4 21:00:18 28° NNE 21:00:18 28° NNE 21:02:07 10° N
Terra 4.1 21:04:44 14° WSW 21:05:52 15° W 21:08:29 10° WNW
Cosmos 1674 4.5 21:08:14 27° NNW 21:08:14 27° NNW 21:10:07 10° N
ATLAS CENTAUR R/B 4.3 20:53:00 10° NW 21:07:07 90° SW 21:11:12 46° SE
S3M 4.2 21:03:19 10° N 21:09:35 54° E 21:10:03 53° E
USA 59 Rocket 2.3 21:08:33 10° WNW 21:12:01 22° WSW 21:12:01 22° WSW
In-Cosmos 22 4.4 21:13:04 62° ENE 21:13:04 62° ENE 21:18:24 10° NNE
Cosmos 1553 Rocket 3.9 21:08:55 10° NNW 21:14:59 71° W 21:15:37 66° SW
Cosmos 1697 Rocket 2.6 21:09:36 10° NNW 21:15:08 79° W 21:15:08 79° W
Cosmos 407 Rocket 3.7 21:17:47 65° W 21:17:55 65° WNW 21:23:08 10° NNE
ARIANE 5 R/B 3.4 21:24:52 47° NNW 21:24:52 47° NNW 21:28:02 10° NNW
Cosmos 1980 Rocket 2.4 21:20:20 10° NNW 21:25:57 59° ENE 21:25:57 59° ENE
Lacrosse 5 rocket 3.3 21:23:04 10° NNW 21:26:17 24° NNE 21:26:17 24° NNE
Cosmos 2315 Rocket 4.3 21:26:01 10° N 21:32:13 55° E 21:32:27 55° E
Cosmos 1190 Rocket 4.2 21:33:33 67° NNE 21:33:33 67° NNE 21:38:09 10° NNE
Cosmos 2266 Rocket 4.0 21:41:09 66° WSW 21:41:35 68° W 21:47:51 10° N
USA 281 4.2 21:50:16 33° WSW 21:50:35 33° WSW 21:56:25 10° NW
Cosmos 2369 3.8 21:50:12 10° NNW 21:55:30 73° NNE 21:55:30 73° NNE
Cosmos 883 Rocket 4.4 21:50:34 10° N 21:56:53 86° W 21:56:53 86° W
H-2A R/B 4.1 22:01:47 30° NW 22:01:47 30° NW 22:04:15 10° NNW
Cosmos 2228 Rocket 4.3 22:03:02 41° N 22:03:02 41° N 22:06:02 10° N
COSMOS 2406 3.6 22:03:23 56° WNW 22:03:33 56° WNW 22:09:14 10° NNE
DELTA 2 R/B (1) 4.5 21:58:07 10° WNW 22:01:39 40° WNW 22:01:39 40° WNW
SL-16 R/B 3.5 22:02:16 10° N 22:07:13 30° ENE 22:08:07 28° ENE
USA 267 4.0 22:01:40 10° ENE 22:06:17 38° E 22:06:17 38° E
Cosmos 2082 Rocket 3.1 22:09:01 39° W 22:09:46 40° WNW 22:15:09 10° N
Cosmos 1655 Rocket 4.2 22:10:08 58° W 22:10:28 59° W 22:16:47 10° N
Meteor 2-10 Rocket 3.9 22:09:17 10° NNW 22:14:25 70° NW 22:14:25 70° NW
Cosmos 2360 Rocket 4.4 22:13:56 10° N 22:17:47 18° NE 22:20:22 14° E
SJ 16-02 3.9 22:20:03 13° ENE 22:20:03 13° ENE 22:20:54 10° NE
GP-B 4.4 22:17:52 10° N 22:20:41 38° N 22:20:41 38° N
NOSS 3-4 (A) 4.4 22:23:19 10° NW 22:29:54 44° WSW 22:29:54 44° WSW
NOSS 3-4 (C) 4.4 22:23:24 10° NW 22:30:01 44° WSW 22:30:01 44° WSW
ALOS 2 4.3 22:33:06 28° NW 22:33:06 28° NW 22:35:28 10° NNW
Cosmos 841 Rocket 4.0 22:31:44 10° NNW 22:36:14 57° NNE 22:36:14 57° NNE
SL-08 R/B 4.4 22:37:24 80° ENE 22:37:24 80° ENE 22:43:19 10° N
SL-4 R/B 4.1 22:43:26 25° NE 22:43:26 25° NE 22:45:20 10° NE
Cosmos 1741 Rocket 4.5 22:43:41 58° NNE 22:43:41 58° NNE 22:47:54 10° NNE
Cosmos 2237 4.4 22:38:41 10° NNW 22:44:08 68° NE 22:44:08 68° NE
Cosmos 2278 3.8 22:48:01 10° NNW 22:53:03 70° NNW 22:53:03 70° NNW
Cosmos 1745 Rocket 4.0 22:55:05 68° E 22:55:08 69° E 23:01:23 10° NNE
CZ-3 Stage 3 4.1 22:43:07 10° W 22:55:14 37° WSW 22:55:14 37° WSW
Cosmos 2322 Rocket 2.7 22:55:52 10° NNW 23:01:23 51° ENE 23:01:52 50° E
H-2A R/B 3.6 22:58:51 10° N 23:01:43 30° NW 23:01:43 30° NW
Lacrosse 5 rocket 4.2 23:01:05 10° NW 23:01:06 10° NW 23:01:06 10° NW
CZ-2D R/B 4.4 23:03:56 10° ENE 23:06:19 13° E 23:07:05 13° E
Cosmos 1980 Rocket 4.2 23:05:47 10° WNW 23:07:42 15° WNW 23:07:42 15° WNW
Nimbus 7 Rocket 4.3 23:06:30 10° NNE 23:12:35 81° ESE 23:12:39 81° ESE
IDEFIX/ARIANE 42P 4.3 23:09:18 10° NE 23:13:13 21° E 23:13:24 21° E
Nadezhda 1 Rocket 3.8 23:11:48 10° N 23:18:13 88° W 23:18:28 83° S
Cosmos 2333 Rocket 2.9 23:14:19 10° NNW 23:19:54 50° ENE 23:21:02 44° E
Cosmos 1953 4.3 23:17:12 10° NNW 23:18:50 23° NNW 23:18:50 23° NNW
Cosmos 1814 Rocket 4.5 23:16:11 10° N 23:21:20 54° ENE 23:21:32 53° ENE
ATLAS 2AS CENTAUR R/B 3.9 23:20:45 10° NNW 23:27:01 38° NE 23:33:05 10° ESE
Cosmos 1833 4.2 23:36:20 72° WNW 23:36:20 72° WNW 23:41:58 10° NNE
ATLAS CENTAUR R/B 3.3 23:41:44 22° NE 23:41:44 22° NE 23:43:09 10° NE
RESURS DK-1 3.6 23:41:52 10° NNW 23:44:22 36° NNW 23:44:22 36° NNW
Cosmos 2219 Rocket 3.0 23:42:31 10° N 23:47:59 48° ENE 23:50:26 30° ESE
MOZ.5/SAFIR/RUBIN 5/SL-8 4.2 23:48:19 55° E 23:48:31 55° ENE 23:53:07 10° N
USA 267 3.8 23:44:34 10° NE 23:50:51 51° NW 23:53:37 32° W
SL-16 R/B 3.3 23:46:10 10° NW 23:49:55 32° WNW 23:49:55 32° WNW
Cosmos 2098 Rocket 4.4 23:45:42 10° N 23:51:42 59° E 23:53:47 41° SE
SJ 16-02 2.7 23:56:47 30° NW 23:56:47 30° NW 23:59:56 10° N
